Wind_Speed
63 62 59 58 56 48 45 50 50 49 48 44 43 47 57 48 37 35 44 35 33 31 29 31 32 30 28 22 22 17 19 20 21 19 21 19 14 12 14 14 12 13 9 8 10 12 18 21 15
63 63 62 61 58 52 45 55 51 54 54 49 50 48 54 66 44 45 46 42 39 37 34 34 32 32 32 26 25 21 22 25 22 18 16 19 16 13 14 17 17 16 16 15 13 15 20 22 18
60 65 66 62 58 51 53 57 59 59 59 53 53 53 57 54 57 49 50 46 48 41 37 34 38 38 35 33 23 24 28 16 21 15 20 17 14 18 18 21 21 23 21 22 20 20 23 23 19
62 62 63 62 59 57 58 63 64 66 65 59 58 59 57 50 56 55 52 46 50 46 44 40 40 41 40 38 35 24 20 23 14 22 17 20 22 17 19 21 23 24 23 24 23 24 27 26 31
66 64 61 62 62 60 62 65 70 70 70 64 60 63 60 57 58 60 59 52 48 51 50 44 36 43 43 40 40 33 21 20 22 24 25 20 23 19 23 18 18 22 23 24 23 24 27 29 32
68 71 66 62 62 65 65 68 74 75 74 71 67 69 67 60 59 55 61 59 53 50 56 49 45 39 45 43 43 41 37 29 30 29 30 32 30 29 32 26 25 28 27 24 22 26 29 31 32
68 71 70 72 70 72 70 71 75 76 81 75 73 74 70 67 61 59 62 62 62 54 53 56 53 47 44 47 47 44 44 42 41 34 31 33 35 34 33 28 27 29 32 30 30 33 36 33 35
70 74 74 71 75 77 81 79 77 79 78 84 79 80 78 68 64 64 61 63 64 62 58 53 58 55 46 44 49 49 47 42 43 42 39 34 34 33 35 34 32 31 34 37 40 41 39 38 40
78 76 73 75 76 80 87 87 88 85 82 83 84 86 86 72 67 69 64 64 70 67 63 60 56 57 55 44 47 46 45 45 44 41 43 42 39 37 40 38 36 37 38 38 41 43 43 43 44
87 84 76 80 84 84 85 90 93 94 92 88 82 88 87 75 70 72 71 66 67 61 70 65 59 54 57 54 45 45 46 46 45 45 43 42 42 40 43 45 45 45 46 50 45 45 45 44 46
98 92 90 87 87 92 91 91 96 98 94 89 84 87 91 81 80 76 79 74 69 71 71 73 65 59 55 54 55 54 51 46 46 44 45 44 45 46 47 49 51 51 51 48 47 48 46 46 51
112 104 101 97 95 97 98 97 96 99 95 95 92 94 91 85 85 81 83 79 76 72 72 73 73 67 62 58 56 51 56 51 50 51 47 47 45 46 50 51 49 50 48 49 48 49 50 54 55
121 114 111 109 107 104 105 99 100 102 97 99 98 97 95 88 85 87 88 86 80 76 73 73 73 76 71 66 63 61 59 57 56 54 51 52 47 47 49 50 48 43 46 47 52 56 59 62 64
130 126 121 119 117 114 113 108 108 100 103 100 102 102 96 92 87 88 94 89 85 81 75 70 75 76 76 74 70 68 64 62 59 60 60 63 61 58 50 49 54 60 61 60 60 61 64 63 64
122 128 127 126 125 126 122 121 113 101 107 107 104 105 101 97 93 90 93 95 92 85 69 60 77 73 72 75 77 74 71 67 65 64 63 64 66 64 64 61 62 62 63 65 66 67 68 68 68
103 113 119 123 126 127 130 121 115 110 111 112 109 104 104 103 98 96 93 92 94 91 85 101 84 82 79 76 75 77 75 73 71 68 67 67 67 66 66 65 66 67 68 69 70 70 72 71 66
86 95 104 110 117 125 132 120 117 118 118 115 113 109 105 105 102 99 94 92 94 95 87 87 86 84 81 79 75 73 76 76 76 74 73 71 71 71 71 72 73 73 72 73 73 73 70 66 68
72 79 87 92 103 115 124 120 123 127 124 120 116 114 111 106 105 104 99 98 95 97 89 90 91 89 83 80 78 74 73 72 72 73 76 75 76 76 75 74 73 71 73 73 70 66 67 72 73
57 64 72 82 93 102 106 118 122 133 130 124 120 118 114 111 105 107 104 101 95 94 91 87 91 87 88 83 80 77 78 75 72 71 71 72 71 72 72 69 66 63 66 68 70 71 75 77 77
44 49 60 71 83 94 98 105 114 136 134 129 123 121 116 113 107 108 106 101 95 92 89 88 88 84 87 86 85 81 80 77 75 77 76 74 75 75 73 71 70 69 72 74 76 78 79 82 82
37 40 50 60 74 83 89 87 106 123 129 131 126 122 120 115 112 107 105 101 98 93 88 90 91 90 82 86 82 82 80 78 79 81 80 79 80 79 77 74 74 76 79 79 80 81 83 84 83
31 35 41 52 63 70 82 86 103 116 124 130 129 127 121 115 111 108 104 100 100 95 87 91 95 95 93 87 81 80 81 81 83 84 84 83 83 81 77 76 77 79 81 82 82 82 84 84 83
26 30 35 42 53 61 72 86 92 108 119 124 129 127 120 116 113 110 102 98 97 94 87 91 93 90 91 87 83 80 79 79 86 87 87 85 84 81 80 81 82 82 83 84 83 83 83 83 78
23 25 31 35 45 52 65 73 81 99 109 120 126 126 121 116 111 110 105 100 94 88 90 92 92 88 90 89 83 76 70 70 67 74 89 87 84 79 82 82 83 82 84 83 83 80 79 75 76
23 23 26 31 38 47 55 62 73 90 106 117 125 128 123 114 110 108 103 102 97 87 88 90 88 86 86 82 80 80 60 61 72 66 71 81 79 79 82 81 81 80 79 78 76 73 72 76 83
23 23 24 26 29 36 49 55 67 82 98 112 122 122 121 115 109 107 102 102 95 91 87 83 82 84 81 80 78 76 81 85 82 74 80 82 80 81 81 80 78 78 75 72 74 74 78 79 82
24 24 22 21 26 30 41 49 59 73 86 101 113 123 120 115 114 110 105 100 95 90 86 76 75 75 78 83 83 81 79 84 91 88 89 83 79 79 78 76 77 74 74 74 75 76 77 82 84
23 23 21 19 22 27 33 42 52 62 81 91 109 123 122 119 120 113 106 99 87 90 84 81 71 69 71 77 81 80 83 84 83 83 79 78 79 79 77 77 77 75 74 72 75 78 82 77 72
21 22 20 19 19 27 32 37 45 60 74 90 108 126 129 123 123 110 106 97 86 86 82 77 70 66 68 70 68 72 72 73 78 82 81 79 75 72 74 75 74 70 71 74 78 76 71 72 73
20 21 18 19 21 27 29 31 43 57 74 90 103 123 127 121 116 110 105 93 87 77 73 54 58 69 72 75 70 72 70 66 71 68 62 66 67 67 65 65 68 71 74 73 70 69 72 74 75
Wind_Direction
244 244 242 236 235 233 226 230 233 235 233 232 224 221 212 214 221 216 220 218 228 227 231 228 222 235 235 245 251 234 242 238 243 241 240 234 239 259 275 280 282 273 279 280 288 297 310 318 316
244 245 243 239 234 232 226 230 231 234 233 228 229 226 221 215 210 212 224 220 219 231 228 225 228 234 235 245 238 244 256 240 239 236 255 238 236 249 265 275 280 286 280 275 295 302 311 325 320
245 245 244 242 236 234 228 230 231 233 235 231 228 226 226 220 218 228 227 223 228 219 233 232 237 236 237 238 246 254 259 249 264 242 300 244 260 251 262 269 274 278 288 278 281 290 297 307 328
246 245 245 243 238 235 230 231 230 232 231 230 227 231 231 224 220 221 225 224 229 231 221 231 235 241 236 236 239 258 259 236 243 241 265 248 271 265 280 270 275 278 278 269 273 286 295 299 304
246 245 243 241 240 238 236 231 231 230 230 231 231 233 230 227 224 221 222 222 227 229 228 225 230 240 237 241 236 239 244 238 247 252 245 239 239 266 281 277 278 280 274 268 278 290 300 300 300
246 245 241 240 240 239 236 234 232 231 231 230 229 231 230 227 225 226 226 223 224 227 226 231 230 236 238 239 240 241 241 239 242 249 251 254 259 258 268 277 275 279 281 274 280 297 311 300 299
246 245 243 240 236 239 238 235 235 234 230 232 225 232 233 226 227 225 226 223 224 226 227 227 234 232 237 237 239 241 245 247 251 252 258 262 257 260 263 276 274 282 272 276 282 295 303 306 304
246 246 243 242 239 236 236 237 235 236 234 232 227 229 232 222 229 228 227 226 226 226 228 231 232 236 237 241 241 243 245 248 255 259 256 264 259 260 263 271 280 281 281 284 283 291 302 302 304
250 247 243 242 240 238 235 235 235 236 235 234 229 230 230 224 227 233 227 227 227 228 229 228 232 234 238 233 241 243 242 248 257 260 260 261 265 262 263 268 271 278 283 287 289 292 297 299 304
255 251 244 239 237 237 237 235 234 233 233 233 233 230 233 225 226 231 229 231 228 227 230 229 230 232 238 237 234 244 247 251 250 258 255 258 268 266 266 269 274 279 284 288 288 290 292 294 293
253 251 245 239 236 236 234 236 235 236 234 234 232 233 233 223 224 226 231 231 230 231 233 233 231 231 234 237 238 243 244 245 241 250 252 262 266 270 269 272 277 280 284 286 287 285 286 286 285
251 248 245 241 238 235 234 233 237 237 235 235 232 233 233 227 224 225 230 231 230 232 235 235 234 233 233 232 234 235 242 242 245 248 251 260 264 267 268 271 275 280 282 282 284 278 275 280 288
248 246 243 240 238 237 234 233 234 235 235 234 234 233 234 231 224 226 230 230 230 231 233 237 237 236 236 234 235 237 241 241 242 247 247 250 257 262 268 270 271 271 271 273 273 277 285 289 296
247 246 243 241 239 238 237 232 231 231 233 232 232 233 233 232 229 226 230 231 231 230 232 232 238 237 238 238 239 242 243 244 243 243 246 250 258 258 262 263 263 265 271 279 282 288 291 294 296
246 246 244 242 239 237 237 234 232 229 232 232 231 230 230 231 229 225 226 231 231 230 227 246 236 238 237 242 241 242 246 246 248 250 248 252 259 264 268 271 273 273 275 277 283 288 291 294 296
244 243 242 241 239 237 236 234 230 229 229 231 231 231 228 229 229 227 225 228 231 232 224 226 235 238 240 242 243 244 245 247 251 253 252 253 258 262 266 270 273 276 278 281 283 286 289 290 292
244 241 240 238 238 235 235 233 227 228 228 227 228 229 229 228 228 228 225 226 228 231 231 233 236 239 240 243 245 245 247 249 250 253 256 257 260 262 264 269 272 274 277 279 281 284 286 288 290
243 242 240 237 236 235 234 230 225 225 226 225 225 227 228 226 226 227 226 224 225 228 229 236 238 239 240 242 245 248 250 250 252 254 256 258 260 263 266 268 270 274 275 278 279 282 285 289 292
246 242 238 236 232 233 228 226 225 227 225 225 224 223 224 227 226 227 227 225 223 225 226 232 238 243 242 243 244 246 248 251 254 255 258 259 262 263 263 267 270 274 276 277 281 284 287 289 291
247 239 238 235 233 232 228 223 218 225 226 224 222 223 223 225 226 227 227 227 224 224 226 229 235 243 246 244 245 246 249 252 254 256 258 261 263 265 266 268 274 277 278 279 283 286 287 289 292
255 245 236 233 232 233 230 220 220 223 221 221 222 222 222 222 225 226 226 226 227 224 223 229 233 231 237 243 246 249 252 254 257 257 259 261 262 264 267 271 275 277 278 282 284 288 290 292 296
258 248 241 233 233 231 228 219 218 218 218 217 219 221 221 220 223 225 228 225 227 224 222 226 232 236 239 243 247 251 254 256 258 260 261 263 266 266 270 272 274 276 279 283 286 289 291 294 297
268 256 246 238 232 232 231 223 219 217 216 215 216 220 219 220 220 223 225 228 226 227 223 229 232 235 239 242 244 247 253 258 259 260 262 263 267 270 273 274 276 279 281 285 287 290 293 294 296
282 269 256 244 235 230 231 226 220 218 215 214 212 217 219 219 220 222 224 227 228 228 227 228 232 235 239 240 242 248 254 259 264 265 261 263 267 272 273 275 278 281 284 287 288 288 291 294 295
291 280 265 250 238 233 228 225 219 217 214 212 211 213 215 216 219 222 222 226 230 227 227 228 232 235 241 243 244 242 239 255 259 259 258 261 267 270 273 275 278 282 283 286 289 292 292 293 292
305 289 272 261 248 239 231 223 219 215 214 211 209 212 213 215 216 221 221 223 226 228 229 230 231 234 239 242 244 244 239 238 248 258 269 271 271 272 274 277 281 284 287 288 290 289 291 291 295
311 298 286 269 254 241 230 225 219 214 213 209 209 207 212 213 216 218 220 221 221 227 230 229 231 234 238 241 242 245 249 253 254 259 265 270 271 271 275 279 280 284 284 286 287 286 290 291 298
306 297 287 268 248 237 226 221 216 211 208 205 205 205 209 210 216 218 219 221 218 224 228 231 234 234 238 244 248 250 252 254 258 261 265 268 270 273 274 277 280 282 284 286 285 288 291 297 301
292 290 284 270 242 232 223 216 208 205 206 202 203 202 206 208 214 217 220 219 217 223 227 234 237 243 246 249 251 253 254 255 256 260 265 265 269 273 277 280 283 279 281 282 287 293 295 302 305
291 285 271 253 242 228 221 209 203 202 201 200 202 204 203 207 212 215 219 217 218 225 231 237 245 248 253 250 245 250 252 252 257 259 264 271 274 277 278 278 277 279 281 286 290 296 301 303 306
Height
10891 10895 10898 10903 10913 10922 10929 10929 10929 10934 10937 10942 10948 10952 10953 10958 10961 10971 10970 10972 10973 10976 10978 10980 10981 10981 10984 10987 10988 10989 10990 10990 10992 10993 10994 10994 10995 10996 10997 10997 10998 10998 10998 10997 10997 10997 10997 10996 10995
10882 10883 10888 10894 10906 10915 10922 10918 10924 10924 10927 10934 10939 10943 10943 10943 10957 10959 10963 10967 10967 10970 10973 10975 10976 10978 10981 10984 10983 10985 10986 10987 10989 10991 10993 10993 10993 10994 10994 10995 10995 10996 10996 10996 10996 10995 10995 10993 10992
10872 10874 10878 10886 10899 10911 10912 10909 10912 10915 10917 10925 10931 10932 10930 10943 10954 10953 10951 10961 10960 10965 10968 10969 10972 10974 10976 10980 10981 10983 10984 10985 10987 10989 10991 10990 10991 10992 10992 10993 10993 10993 10994 10994 10993 10992 10991 10990 10989
10860 10864 10870 10879 10890 10895 10897 10895 10898 10901 10905 10915 10920 10922 10927 10937 10940 10941 10946 10952 10953 10956 10960 10964 10967 10969 10972 10975 10978 10979 10981 10982 10984 10986 10988 10989 10991 10990 10991 10990 10991 10990 10990 10990 10989 10989 10987 10987 10985
10847 10852 10860 10869 10878 10881 10883 10885 10883 10888 10895 10905 10913 10911 10919 10926 10929 10934 10938 10943 10946 10949 10952 10958 10961 10964 10967 10971 10973 10975 10978 10980 10980 10982 10985 10986 10988 10988 10988 10988 10988 10987 10987 10987 10986 10985 10984 10983 10980
10835 10836 10848 10857 10862 10864 10870 10871 10870 10876 10883 10891 10900 10898 10903 10916 10920 10928 10932 10936 10939 10942 10946 10949 10955 10958 10962 10965 10968 10970 10973 10976 10977 10978 10981 10983 10984 10985 10984 10985 10985 10984 10983 10983 10982 10981 10980 10978 10976
10821 10821 10834 10839 10845 10850 10854 10855 10861 10863 10867 10879 10885 10886 10892 10904 10912 10917 10919 10926 10930 10935 10938 10943 10947 10952 10956 10958 10962 10965 10966 10970 10972 10974 10977 10978 10980 10981 10981 10980 10980 10980 10979 10978 10977 10976 10975 10972 10970
10803 10806 10818 10826 10832 10836 10833 10839 10845 10847 10857 10859 10868 10875 10874 10897 10906 10906 10911 10917 10922 10926 10930 10935 10939 10944 10950 10952 10955 10958 10961 10964 10966 10969 10971 10973 10975 10976 10976 10976 10976 10976 10975 10974 10973 10971 10969 10966 10964
10782 10790 10806 10810 10811 10812 10812 10820 10824 10832 10837 10842 10853 10857 10858 10885 10894 10895 10901 10906 10911 10917 10921 10926 10930 10936 10941 10946 10948 10952 10955 10957 10960 10963 10966 10968 10970 10971 10971 10971 10970 10970 10969 10968 10968 10965 10963 10961 10957
10757 10768 10785 10782 10786 10791 10793 10798 10805 10806 10815 10825 10838 10848 10848 10875 10884 10884 10887 10895 10902 10906 10908 10916 10922 10929 10933 10938 10941 10945 10949 10953 10956 10957 10960 10962 10964 10965 10965 10965 10965 10964 10963 10963 10962 10960 10957 10954 10951
10729 10746 10752 10759 10763 10766 10771 10778 10780 10787 10801 10815 10826 10828 10835 10858 10866 10871 10872 10881 10889 10896 10903 10906 10914 10921 10926 10929 10934 10936 10941 10946 10951 10952 10954 10957 10959 10960 10959 10959 10959 10958 10958 10957 10955 10952 10950 10948 10943
10694 10712 10723 10730 10739 10743 10750 10756 10769 10770 10792 10794 10802 10809 10820 10839 10852 10859 10860 10866 10876 10885 10891 10899 10905 10911 10916 10921 10925 10927 10931 10937 10942 10945 10949 10951 10952 10952 10951 10952 10953 10953 10952 10949 10947 10944 10941 10938 10934
10655 10676 10685 10697 10704 10716 10723 10739 10750 10750 10768 10774 10785 10792 10804 10823 10839 10847 10847 10853 10863 10874 10882 10890 10893 10901 10907 10912 10915 10918 10923 10929 10934 10937 10941 10945 10944 10944 10944 10946 10945 10946 10943 10940 10937 10934 10930 10927 10927
10612 10628 10647 10663 10675 10685 10693 10713 10710 10739 10741 10753 10762 10773 10788 10804 10822 10832 10834 10842 10851 10862 10874 10889 10883 10888 10895 10901 10905 10909 10915 10920 10925 10930 10933 10935 10932 10934 10936 10937 10936 10934 10933 10930 10926 10924 10922 10921 10917
10571 10585 10602 10623 10636 10649 10661 10671 10697 10724 10721 10728 10738 10752 10771 10783 10799 10811 10821 10826 10837 10849 10900 10842 10878 10877 10883 10889 10896 10901 10907 10912 10917 10921 10924 10925 10923 10926 10926 10926 10925 10923 10923 10920 10919 10917 10915 10913 10907
10534 10543 10562 10581 10595 10616 10617 10651 10685 10693 10691 10708 10718 10734 10750 10761 10775 10789 10802 10817 10826 10835 10861 10866 10859 10864 10872 10878 10886 10892 10898 10903 10908 10910 10913 10914 10915 10917 10917 10916 10914 10914 10912 10910 10910 10907 10906 10901 10899
10504 10513 10523 10542 10557 10575 10581 10623 10659 10657 10662 10680 10696 10712 10730 10744 10757 10770 10789 10801 10809 10817 10840 10845 10848 10852 10860 10868 10874 10883 10887 10893 10898 10900 10900 10905 10905 10907 10908 10905 10904 10905 10904 10903 10900 10898 10896 10892 10889
10479 10488 10499 10516 10524 10530 10553 10583 10616 10615 10630 10654 10671 10690 10707 10723 10738 10749 10764 10778 10794 10804 10831 10832 10835 10839 10851 10859 10864 10873 10876 10881 10886 10890 10888 10893 10895 10896 10898 10896 10895 10897 10896 10894 10890 10889 10886 10881 10877
10464 10470 10477 10485 10493 10499 10522 10541 10593 10584 10602 10630 10649 10664 10685 10705 10721 10730 10745 10759 10780 10793 10815 10819 10823 10831 10842 10850 10856 10863 10864 10871 10878 10879 10880 10880 10885 10885 10885 10888 10887 10889 10886 10882 10879 10879 10875 10869 10867
10446 10452 10455 10462 10468 10474 10492 10515 10547 10549 10579 10609 10631 10647 10668 10690 10703 10713 10731 10748 10768 10783 10803 10817 10816 10823 10832 10838 10847 10854 10857 10863 10870 10867 10869 10873 10873 10873 10876 10878 10877 10879 10875 10871 10868 10865 10862 10857 10855
10434 10438 10439 10444 10448 10456 10475 10505 10510 10526 10555 10586 10612 10630 10647 10671 10686 10698 10714 10736 10750 10769 10794 10804 10805 10817 10814 10825 10837 10846 10850 10855 10856 10856 10861 10865 10863 10862 10865 10871 10871 10866 10862 10860 10857 10854 10848 10844 10841
10422 10424 10426 10430 10434 10444 10450 10474 10477 10499 10528 10558 10591 10607 10633 10659 10673 10685 10702 10721 10735 10754 10782 10787 10791 10798 10809 10822 10833 10836 10836 10841 10842 10846 10848 10852 10852 10855 10861 10859 10856 10854 10851 10852 10848 10843 10836 10833 10828
10413 10413 10415 10417 10423 10434 10436 10444 10472 10484 10513 10541 10568 10593 10622 10644 10655 10672 10692 10709 10723 10744 10768 10770 10776 10787 10800 10815 10821 10826 10828 10830 10826 10832 10837 10840 10843 10847 10849 10845 10842 10841 10839 10839 10837 10831 10825 10819 10815
10403 10405 10405 10407 10411 10419 10420 10435 10461 10470 10499 10520 10550 10578 10607 10630 10645 10661 10680 10695 10711 10741 10748 10756 10766 10782 10788 10799 10813 10826 10824 10820 10818 10822 10822 10828 10835 10840 10833 10832 10830 10830 10828 10827 10824 10820 10815 10808 10803
10398 10396 10397 10398 10401 10405 10412 10426 10440 10453 10473 10498 10529 10555 10586 10614 10633 10649 10672 10686 10702 10729 10730 10749 10761 10777 10781 10794 10806 10812 10816 10816 10808 10807 10807 10816 10828 10826 10821 10821 10821 10820 10816 10815 10812 10807 10803 10798 10789
10391 10390 10389 10389 10393 10398 10401 10414 10422 10437 10454 10483 10512 10553 10575 10601 10620 10637 10660 10673 10696 10712 10722 10742 10755 10767 10780 10784 10789 10802 10807 10806 10799 10799 10798 10813 10815 10813 10810 10811 10810 10807 10804 10802 10799 10795 10791 10786 10777
10384 10383 10381 10382 10384 10388 10393 10400 10411 10424 10446 10472 10505 10531 10562 10591 10600 10620 10643 10663 10683 10701 10716 10733 10747 10760 10766 10767 10775 10791 10803 10799 10791 10802 10798 10803 10804 10802 10801 10800 10797 10795 10792 10791 10787 10783 10779 10772 10766
10380 10376 10375 10374 10376 10377 10383 10389 10400 10420 10431 10462 10485 10512 10543 10569 10581 10608 10632 10656 10687 10685 10708 10723 10739 10751 10757 10763 10772 10786 10786 10784 10790 10791 10794 10793 10792 10792 10790 10788 10787 10784 10780 10778 10775 10771 10766 10760 10752
10373 10369 10368 10367 10369 10369 10372 10380 10394 10407 10424 10444 10460 10483 10513 10553 10567 10606 10625 10651 10678 10683 10710 10724 10735 10745 10752 10761 10772 10772 10778 10779 10778 10783 10784 10781 10783 10782 10780 10777 10774 10771 10770 10767 10764 10759 10754 10747 10740
10365 10362 10362 10362 10362 10363 10367 10377 10388 10401 10411 10429 10454 10474 10505 10548 10577 10600 10620 10652 10667 10699 10715 10732 10738 10737 10742 10747 10754 10762 10763 10765 10767 10769 10769 10770 10772 10771 10768 10766 10763 10761 10761 10757 10752 10748 10741 10735 10727